Location: Unspecified
(0.0000°N, 0.0000°E)
Time: 07:39:32
(UTC+00:00)

TIANHUI 5D - Pass Details

Date: 15 August 2024
Orbit: 603 x 606 km, 97.8° (Epoch: 07 September)

Event Time Altitude Azimuth Distance (km) Brightness Sun altitude
Rises 18:22:22 0° 185° (S) 2,862 ? -4.4°
Reaches altitude 10° 18:24:42 10° 194° (SSW) 1,956 ? -4.9°
Maximum altitude 18:28:31 33° 258° (WSW) 1,022 ? -5.9°
Drops below altitude 10° 18:32:20 10° 323° (NW) 1,947 ? -6.8°
Sets 18:34:40 0° 332° (NNW) 2,847 ? -7.4°
